CW1172 Weather Reports


time (UTC)temp
F
wind
direction
speed
knots
gust
knots
rain 1hr
in
rain 24hr
in
rain mn
in
humidity
%
barometer
mb
20260506010025 31 155 0.0 0.0 0.00 0.00 0.00 84 1011.3
20260506004521 32 134 0.0 0.0 0.00 0.00 0.00 85 1011.3
20260506003020 31 132 0.0 0.0 0.00 0.00 0.00 84 1011.1
20260506001519 32 128 0.0 0.0 0.00 0.00 0.00 83 1011.2
20260506000018 32 119 0.0 0.0 0.00 0.00 0.00 83 1011.3
20260505234519 32 121 0.0 0.0 0.00 0.00 0.00 83 1011.2
20260505233025 32 121 0.0 0.0 0.00 0.00 0.00 82 1011.2
20260505231515 32 120 0.0 0.0 0.00 0.00 0.00 82 1011.3
20260505230014 32 121 0.0 0.0 0.00 0.00 0.00 81 1011.3
20260505224514 32 132 0.0 0.0 0.00 0.00 0.00 80 1011.5
20260505223011 33 166 0.0 0.0 0.00 0.00 0.00 79 1011.7
20260505221510 33 166 0.0 0.0 0.00 0.00 0.00 78 1011.7
20260505220022 33 167 0.0 0.0 0.00 0.00 0.00 78 1011.6
20260505214507 34 167 0.0 0.0 0.00 0.00 0.00 77 1011.8
20260505213005 34 166 0.0 0.0 0.00 0.00 0.00 76 1011.7
20260505211503 35 167 0.0 0.0 0.00 0.00 0.00 74 1011.8
20260505210001 36 167 0.0 0.0 0.00 0.00 0.00 73 1011.5
20260505204503 36 165 0.0 0.0 0.00 0.00 0.00 71 1011.5
20260505203108 38 219 0.0 0.0 0.00 0.00 0.00 70 1011.4
20260505201556 39 219 0.0 0.0 0.00 0.00 0.00 69 1011.4
20260505200108 40 221 0.0 0.0 0.00 0.00 0.00 68 1011.5
20260505194556 41 219 0.0 0.0 0.00 0.00 0.00 65 1011.4
20260505193103 43 219 0.0 0.0 0.00 0.00 0.00 63 1011.3
20260505191604 44 219 0.0 0.0 0.00 0.00 0.00 59 1011.3
20260505190052 45 218 0.0 0.0 0.00 0.00 0.00 59 1011.2
20260505184551 46 360 0.0 0.0 0.00 0.00 0.00 56 1010.9
20260505183050 47 316 0.0 0.0 0.00 0.00 0.00 54 1010.8
20260505181555 47 288 0.0 0.0 0.00 0.00 0.00 51 1010.8
20260505180048 48 360 0.0 0.0 0.00 0.00 0.00 47 1010.8
20260505174548 49 301 0.0 0.0 0.00 0.00 0.00 43 1010.7
20260505173046 51 292 0.0 0.0 0.00 0.00 0.00 37 1010.6
20260505171547 52 171 0.0 0.0 0.00 0.00 0.00 35 1010.6
20260505170046 53 306 0.0 0.0 0.00 0.00 0.00 33 1010.5
20260505164549 54 360 0.0 0.0 0.00 0.00 0.00 32 1010.5
20260505163045 52 309 0.0 0.0 0.00 0.00 0.00 35 1010.5
20260505161547 53 244 0.0 0.0 0.00 0.00 0.00 34 1010.5
20260505153043 53 269 0.0 0.0 0.00 0.00 0.00 35 1010.5
20260505151543 52 263 0.0 0.0 0.00 0.00 0.00 38 1010.6
20260505124549 52 259 0.0 0.0 0.00 0.00 0.00 40 1010.6
20260505123040 53 360 0.0 0.0 0.00 0.00 0.00 37 1010.7
20260505121543 53 276 0.0 0.0 0.00 0.00 0.00 39 1010.7
20260505120040 53 344 0.0 0.0 0.00 0.00 0.00 36 1010.4
20260505114539 53 360 0.0 0.0 0.00 0.00 0.00 33 1010.5
20260505113039 53 277 0.0 0.0 0.00 0.00 0.00 36 1010.5
20260505111540 53 360 0.0 0.0 0.00 0.00 0.00 38 1010.4
20260505101544 54 327 0.0 0.0 0.00 0.00 0.00 35 1010.3
20260505100037 53 334 0.0 0.0 0.00 0.00 0.00 33 1010.3
20260505094534 53 318 0.0 0.0 0.00 0.00 0.00 36 1010.3
20260505093034 53 278 0.0 0.0 0.00 0.00 0.00 36 1010.2
20260505091536 53 282 0.0 0.0 0.00 0.00 0.00 40 1010.1
20260505090041 52 360 0.0 0.0 0.00 0.00 0.00 40 1010.0
20260505084543 51 258 0.0 0.0 0.00 0.00 0.00 40 1009.7
20260505083031 52 319 0.0 0.0 0.00 0.00 0.00 43 1009.6
20260505081530 51 265 0.0 0.0 0.00 0.00 0.00 43 1009.6
20260505080040 51 235 0.0 0.0 0.00 0.00 0.00 42 1009.6
20260505074526 50 237 0.0 0.0 0.00 0.00 0.00 44 1009.6
20260505073029 50 360 0.0 0.0 0.00 0.00 0.00 45 1009.5
20260505071518 49 296 0.0 0.0 0.00 0.00 0.00 48 1009.5
20260505070015 48 329 0.0 0.0 0.00 0.00 0.00 48 1009.4
20260505064515 47 360 0.0 0.0 0.00 0.00 0.00 50 1009.3
20260505063014 46 327 0.0 0.0 0.00 0.00 0.00 50 1009.3
20260505061513 45 325 0.0 0.0 0.00 0.00 0.00 52 1009.3
20260505060013 44 360 0.0 0.0 0.00 0.00 0.00 54 1009.3
20260505054511 43 360 0.0 0.0 0.00 0.00 0.00 55 1009.3
20260505053010 42 360 0.0 0.0 0.00 0.00 0.00 57 1009.1
20260505051510 41 315 0.0 0.0 0.00 0.00 0.00 58 1009.0
20260505041504 40 304 0.0 0.0 0.00 0.00 0.00 63 1008.5
20260505040001 40 298 0.0 0.0 0.00 0.00 0.00 66 1008.4
20260505034601 41 298 0.0 0.0 0.00 0.00 0.00 64 1008.3
20260505033100 41 360 0.0 0.0 0.00 0.00 0.00 64 1008.3
20260505031601 42 329 0.0 0.0 0.00 0.00 0.00 66 1008.2
20260505030059 43 360 0.0 0.0 0.00 0.00 0.00 64 1008.1
20260505024555 43 311 0.0 0.0 0.00 0.00 0.00 65 1007.9
20260505023052 44 264 0.0 0.0 0.00 0.00 0.00 67 1007.9
20260505021549 44 294 0.0 0.0 0.00 0.00 0.00 68 1007.7
20260505020051 44 294 0.0 0.0 0.00 0.00 0.00 68 1007.7
20260505014602 45 307 0.0 0.0 0.00 0.00 0.00 69 1007.7
20260505013047 45 322 0.0 0.0 0.00 0.00 0.00 69 1007.6
20260505011550 45 309 0.0 0.0 0.00 0.00 0.00 74 1007.6